Regional Weather Roundup
Issued by NWS

Home | Current Version | Previous Version | Text Only | Print | Product List | Glossary On
Versions: 1 2 3 4 5 6 7 8 9 10 11 12 13 14 15 16 17 18 19 20 21 22 23 24 25 26 27
000
ASUS45 KSLC 291610
RWRUT

UTAH REGIONAL WEATHER ROUNDUP
NATIONAL WEATHER SERVICE SALT LAKE CITY UT
1000 AM MDT SUN MAY 29 2016

UTZ001>011-023>025-291700-

NORTHERN UTAH

CITY           SKY/WX    TMP DP  RH WIND       PRES   REMARKS
BRIGHAM CITY     N/A     60  42  51 CALM      30.12S
HILL AFB       SUNNY     64  40  41 E6        30.12R
LOGAN          SUNNY     56  41  57 N6        30.14S
OGDEN          SUNNY     66  42  41 N5        30.11R
PROVO AIRPORT  MOSUNNY   63  43  48 CALM      30.13F
SALT LAKE CITY MOSUNNY   69  41  36 SE5       30.10R
VERNAL         SUNNY     61  41  47 VRB3      30.19S
WENDOVER       SUNNY     66  37  34 SE5       30.11R
HEBER CITY     SUNNY     57  39  51 CALM      30.16F
WEST JORDAN    SUNNY     66  45  45 SE14      30.12S

$$

UTZ012>022-026-027-291700-

SOUTHERN/CENTRAL UTAH

CITY           SKY/WX    TMP DP  RH WIND       PRES   REMARKS
BLANDING       SUNNY     70  30  23 S7        30.25S
BRYCE CANYON   SUNNY     61  32  33 NE3       30.26S
CEDAR CITY     SUNNY     64  37  36 VRB3      30.13S
DELTA          MOSUNNY   64  36  34 NE3       30.11F
HANKSVILLE     SUNNY     68  36  30 CALM      30.15S
MILFORD        SUNNY     68  38  33 VRB5      30.11F
MOAB/CYNLANDS  MOSUNNY   70  36  28 E7        30.12R
PRICE          CLOUDY    64  36  35 CALM      30.19S
ST GEORGE      SUNNY     73  32  21 CALM      30.02S
KANAB          SUNNY     73  34  23 CALM      30.13F

$$

REGIONAL REPORTS     COLORADO/ARIZONA

CITY           SKY/WX    TMP DP  RH WIND       PRES   REMARKS
CRAIG, CO      SUNNY     62  40  44 VRB3      30.22F
GRAND JUNCTION SUNNY     66  35  31 SE12      30.16S
RIFLE          SUNNY     61  37  41 CALM      30.20F
MONTROSE       SUNNY     64  37  36 N7        30.21F
CORTEZ         SUNNY     70  31  23 CALM      30.17F
PAGE, AZ       NOT AVBL
GRAND CANYON   SUNNY     68  21  16 VRB5      30.21S
KINGMAN        SUNNY     76  29  17 W8        30.03R
FLAGSTAFF      SUNNY     62  25  24 MISG      30.23F

$$

REGIONAL REPORTS    NEVADA/IDAHO/WYOMING

CITY           SKY/WX    TMP DP  RH WIND       PRES   REMARKS
LAS VEGAS, NV  MOSUNNY   80  27  14 E3        29.92R
ELY            SUNNY     57  39  51 SE3       30.18S
ELKO           MOSUNNY   60  43  53 CALM      30.13S
POCATELLO, ID  SUNNY     59  40  49 E5        30.13F
BURLEY         MOSUNNY   57  43  59 VRB5      30.10S
EVANSTON, WY   SUNNY     58  32  37 VRB3      30.23S
ROCK SPRINGS   SUNNY     54  33  45 W5        30.24S
KEMMERER         N/A     55  32  41 E3        30.26S

$$




USA.gov is the U.S. government's official web portal to all federal, state and local government web resources and services.